When you browse on this site, cookies collect data to enhance your experience and personalize the content and advertising you see.
Visit our Privacy Policy to learn more. By continuing to use the site, you agree to this use of cookies and data.
  • In Spain
  • List of Countries
  • For 7 days
  • Water Temperature
  • Satellite Maps
  • Weather Map
  • Weather Widgets
  • user-avatar
    Login

    Hourly Weather Ust-Kolpna

    Today, 19 July, Friday

    Time Temperature Precipitation Wind Pressure Humidity
    00:00 +12°C° 0 mm 3 mps 739 mmHg 91%
    01:00 +12°C° 0.1 mm 3 mps 739 mmHg 93%
    02:00 +12°C° 0.1 mm 3 mps 739 mmHg 94%
    03:00 +12°C° 0 mm 3 mps 739 mmHg 97%
    04:00 +13°C° 0.1 mm 4 mps 739 mmHg 96%
    05:00 +13°C° 0.1 mm 4 mps 739 mmHg 94%
    06:00 +13°C° 0.1 mm 5 mps 739 mmHg 93%
    07:00 +14°C° 0.5 mm 6 mps 739 mmHg 92%
    08:00 +14°C° 0.5 mm 6 mps 739 mmHg 91%
    09:00 +15°C° 0 mm 7 mps 739 mmHg 92%
    10:00 +15°C° 0.2 mm 7 mps 739 mmHg 90%
    11:00 +16°C° 0.2 mm 6 mps 739 mmHg 88%
    12:00 +16°C° 0.2 mm 6 mps 739 mmHg 86%
    13:00 +17°C° 0.4 mm 6 mps 740 mmHg 83%
    14:00 +18°C° 0.4 mm 7 mps 740 mmHg 80%
    15:00 +20°C° 0.4 mm 7 mps 740 mmHg 77%
    16:00 +20°C° 0.2 mm 6 mps 740 mmHg 78%
    17:00 +20°C° 0.2 mm 6 mps 740 mmHg 79%
    18:00 +19°C° 0.2 mm 6 mps 741 mmHg 80%
    19:00 +17°C° 0 mm 5 mps 741 mmHg 82%
    20:00 +16°C° 0 mm 5 mps 741 mmHg 85%
    21:00 +15°C° 0 mm 4 mps 741 mmHg 88%
    22:00 +14°C° 0 mm 4 mps 741 mmHg 89%
    23:00 +14°C° 0 mm 4 mps 742 mmHg 91%

    Tomorrow, 20 July, Saturday

    Time Temperature Precipitation Wind Pressure Humidity
    00:00 +13°C° 0 mm 4 mps 742 mmHg 92%
    01:00 +13°C° 0 mm 4 mps 742 mmHg 92%
    02:00 +13°C° 0 mm 5 mps 742 mmHg 92%
    03:00 +13°C° 0 mm 5 mps 743 mmHg 92%
    04:00 +13°C° 0 mm 5 mps 743 mmHg 91%
    05:00 +13°C° 0 mm 5 mps 743 mmHg 89%
    06:00 +13°C° 0 mm 5 mps 743 mmHg 88%
    07:00 +14°C° 0 mm 5 mps 743 mmHg 86%
    08:00 +15°C° 0 mm 5 mps 743 mmHg 83%
    09:00 +16°C° 0 mm 6 mps 743 mmHg 81%
    10:00 +17°C° 0.1 mm 6 mps 744 mmHg 77%
    11:00 +20°C° 0.1 mm 7 mps 744 mmHg 72%
    12:00 +22°C° 0.1 mm 7 mps 744 mmHg 68%
    13:00 +22°C° 0.6 mm 7 mps 744 mmHg 68%
    14:00 +22°C° 0.6 mm 7 mps 744 mmHg 69%
    15:00 +22°C° 0.6 mm 7 mps 744 mmHg 70%
    16:00 +22°C° 0.4 mm 6 mps 744 mmHg 73%
    17:00 +21°C° 0.4 mm 6 mps 745 mmHg 76%
    18:00 +21°C° 0.4 mm 5 mps 745 mmHg 79%
    19:00 +20°C° 0.1 mm 5 mps 745 mmHg 83%
    20:00 +18°C° 0.1 mm 4 mps 745 mmHg 86%
    21:00 +17°C° 0.1 mm 3 mps 746 mmHg 90%
    22:00 +17°C° 0 mm 4 mps 746 mmHg 91%
    23:00 +15°C° 0 mm 4 mps 746 mmHg 92%

    Day after tomorrow, 21 July, Sunday

    Time Temperature Precipitation Wind Pressure Humidity
    00:00 +15°C° 0 mm 4 mps 746 mmHg 92%
    01:00 +14°C° 0 mm 4 mps 746 mmHg 93%
    02:00 +14°C° 0 mm 4 mps 746 mmHg 94%
    03:00 +14°C° 0 mm 4 mps 746 mmHg 94%
    04:00 +14°C° 0 mm 4 mps 746 mmHg 94%
    05:00 +14°C° 0 mm 4 mps 746 mmHg 93%
    06:00 +14°C° 0 mm 4 mps 746 mmHg 92%
    07:00 +15°C° 0 mm 4 mps 746 mmHg 88%
    08:00 +18°C° 0 mm 4 mps 746 mmHg 84%
    09:00 +19°C° 0 mm 5 mps 747 mmHg 79%
    10:00 +20°C° 0 mm 5 mps 746 mmHg 75%
    11:00 +22°C° 0 mm 5 mps 746 mmHg 71%
    12:00 +23°C° 0 mm 5 mps 746 mmHg 68%
    13:00 +23°C° 0.1 mm 5 mps 746 mmHg 66%
    14:00 +25°C° 0.1 mm 5 mps 746 mmHg 64%
    15:00 +25°C° 0.1 mm 5 mps 746 mmHg 62%
    16:00 +25°C° 0.1 mm 5 mps 746 mmHg 65%
    17:00 +23°C° 0.1 mm 4 mps 746 mmHg 68%
    18:00 +23°C° 0.1 mm 4 mps 746 mmHg 72%
    19:00 +21°C° 0.1 mm 3 mps 746 mmHg 76%
    20:00 +20°C° 0.1 mm 3 mps 746 mmHg 80%
    21:00 +18°C° 0.1 mm 3 mps 746 mmHg 85%
    22:00 +17°C° 0 mm 2 mps 746 mmHg 86%
    23:00 +17°C° 0 mm 2 mps 746 mmHg 88%

    22 July, Monday

    Time Temperature Precipitation Wind Pressure Humidity
    00:00 +16°C° 0 mm 2 mps 746 mmHg 90%
    01:00 +15°C° 0 mm 2 mps 746 mmHg 90%
    02:00 +15°C° 0 mm 2 mps 746 mmHg 91%
    03:00 +15°C° 0 mm 2 mps 746 mmHg 91%
    04:00 +15°C° 0 mm 2 mps 746 mmHg 91%
    05:00 +15°C° 0 mm 1 mps 746 mmHg 90%
    06:00 +16°C° 0 mm 1 mps 746 mmHg 90%
    07:00 +18°C° 0 mm 1 mps 746 mmHg 84%
    08:00 +20°C° 0 mm 1 mps 746 mmHg 78%
    09:00 +21°C° 0 mm 1 mps 746 mmHg 73%
    10:00 +23°C° 0 mm 1 mps 746 mmHg 67%
    11:00 +24°C° 0 mm 1 mps 746 mmHg 61%
    12:00 +23°C° 0 mm 0 mps 746 mmHg 56%
    13:00 +24°C° 0 mm 0 mps 745 mmHg 54%
    14:00 +24°C° 0 mm 0 mps 745 mmHg 52%
    15:00 +25°C° 0 mm 0 mps 745 mmHg 50%
    16:00 +26°C° 0 mm 1 mps 745 mmHg 54%
    17:00 +26°C° 0 mm 1 mps 744 mmHg 58%
    18:00 +26°C° 0 mm 1 mps 744 mmHg 62%
    19:00 +24°C° 0 mm 1 mps 744 mmHg 65%
    20:00 +21°C° 0 mm 2 mps 744 mmHg 68%
    21:00 +20°C° 0 mm 2 mps 743 mmHg 71%
    22:00 +19°C° 0 mm 2 mps 743 mmHg 72%
    23:00 +19°C° 0 mm 2 mps 743 mmHg 73%

    23 July, Tuesday

    Time Temperature Precipitation Wind Pressure Humidity
    00:00 +18°C° 0 mm 3 mps 743 mmHg 75%
    01:00 +18°C° 0 mm 3 mps 742 mmHg 75%
    02:00 +18°C° 0 mm 3 mps 742 mmHg 74%
    03:00 +18°C° 0 mm 3 mps 742 mmHg 74%
    04:00 +18°C° 0 mm 4 mps 742 mmHg 76%
    05:00 +18°C° 0 mm 4 mps 742 mmHg 78%
    06:00 +18°C° 0 mm 4 mps 741 mmHg 80%
    07:00 +17°C° 0.4 mm 5 mps 741 mmHg 82%
    08:00 +17°C° 0.4 mm 5 mps 741 mmHg 85%
    09:00 +17°C° 0.4 mm 6 mps 741 mmHg 88%
    10:00 +19°C° 1 mm 5 mps 741 mmHg 88%
    11:00 +19°C° 1 mm 5 mps 741 mmHg 89%
    12:00 +19°C° 1 mm 5 mps 741 mmHg 90%
    13:00 +19°C° 1.1 mm 5 mps 741 mmHg 89%
    14:00 +19°C° 1.1 mm 4 mps 741 mmHg 88%
    15:00 +19°C° 1.1 mm 4 mps 741 mmHg 88%
    16:00 +19°C° 0.7 mm 4 mps 741 mmHg 87%
    17:00 +19°C° 0.7 mm 5 mps 741 mmHg 87%
    18:00 +19°C° 0.7 mm 5 mps 741 mmHg 87%
    19:00 +19°C° 0.2 mm 5 mps 741 mmHg 88%
    20:00 +18°C° 0.2 mm 4 mps 741 mmHg 90%
    21:00 +17°C° 0.2 mm 4 mps 742 mmHg 91%
    22:00 +17°C° 0.3 mm 4 mps 742 mmHg 92%
    23:00 +17°C° 0.3 mm 4 mps 742 mmHg 93%

    24 July, Wednesday

    Time Temperature Precipitation Wind Pressure Humidity
    00:00 +15°C° 0.3 mm 4 mps 742 mmHg 93%
    01:00 +16°C° 0 mm 3 mps 742 mmHg 92%
    02:00 +16°C° 0 mm 3 mps 742 mmHg 91%
    03:00 +16°C° 0 mm 3 mps 741 mmHg 90%
    04:00 +16°C° 0 mm 3 mps 741 mmHg 90%
    05:00 +16°C° 0 mm 3 mps 741 mmHg 90%
    06:00 +16°C° 0 mm 3 mps 741 mmHg 91%
    07:00 +17°C° 0 mm 3 mps 741 mmHg 89%
    08:00 +18°C° 0 mm 4 mps 741 mmHg 88%
    09:00 +18°C° 0 mm 4 mps 741 mmHg 87%
    10:00 +19°C° 0.2 mm 4 mps 741 mmHg 85%
    11:00 +20°C° 0.2 mm 3 mps 741 mmHg 84%
    12:00 +21°C° 0.2 mm 3 mps 741 mmHg 83%
    13:00 +21°C° 0.7 mm 3 mps 741 mmHg 83%
    14:00 +21°C° 0.7 mm 2 mps 741 mmHg 84%
    15:00 +21°C° 0.7 mm 2 mps 741 mmHg 85%
    16:00 +20°C° 0.9 mm 2 mps 741 mmHg 87%
    17:00 +19°C° 0.9 mm 3 mps 741 mmHg 88%
    18:00 +18°C° 0.9 mm 4 mps 741 mmHg 90%
    19:00 +18°C° 0.5 mm 4 mps 741 mmHg 92%
    20:00 +17°C° 0.5 mm 4 mps 741 mmHg 93%
    21:00 +17°C° 0.5 mm 4 mps 741 mmHg 94%
    22:00 +17°C° 0.2 mm 4 mps 740 mmHg 95%
    23:00 +17°C° 0.2 mm 4 mps 740 mmHg 95%
    Show more